Regional Weather Roundup
Issued by NWS

Home | Current Version | Previous Version | Graphics & Text | Print | Product List | Glossary On
Versions: 1 2 3 4 5 6 7 8 9 10 11 12 13 14 15 16 17 18 19 20 21 22 23 24 25 26 27 28 29 30 31 32 33 34 35 36 37 38 39 40 41 42 43 44 45 46 47 48 49 50
000
ASUS43 KLOT 221608
RWRIL

ILLINOIS REGIONAL WEATHER ROUNDUP
NATIONAL WEATHER SERVICE CHICAGO/ROMEOVILLE IL
1000 AM CST WED FEB 22 2017

NOTE: "FAIR" INDICATES FEW OR NO CLOUDS BELOW 12,000 FEET WITH NO
SIGNIFICANT WEATHER AND/OR OBSTRUCTIONS TO VISIBILITY.

* THESE STATIONS ARE NOT UNDER NWS QUALITY CONTROL. THEY ALSO MAY NOT
  REPORT WEATHER SUCH AS PRECIPITATION OR FOG.

ILZ001-002-007-009-015-016-024-221700-
NORTHWEST ILLINOIS

CITY           SKY/WX    TMP DP  RH WIND       PRES   REMARKS
MOLINE         MOSUNNY   59  55  87 S13       29.74F
STERLING*      CLOUDY    55  55 100 SW8       29.76F
SAVANNA*       MOSUNNY   57  54  90 S12G17    29.73F
$$

ILZ003-004-008-010-011-017-018-221700-
NORTH CENTRAL ILLINOIS

CITY           SKY/WX    TMP DP  RH WIND       PRES   REMARKS
ROCKFORD       CLOUDY    55  54  96 SW12      29.77S FOG
FREEPORT*      CLOUDY    52  52  99 SW10      29.76S FOG
ROCHELLE*      CLOUDY    55  55 100 SW16      29.77F FOG
DE KALB*       CLOUDY    56  56  99 S15       29.78F FOG
PERU*          CLOUDY    55  53  94 SW12      29.79F
$$

ILZ005-006-012>014-019>023-221700-
NORTHEAST ILLINOIS

CITY           SKY/WX    TMP DP  RH WIND       PRES   REMARKS
CHICAGO-OHARE  CLOUDY    55  52  89 SW10      29.77F FOG
CHICAGO-MIDWAY FOG       54  54 100 S8        29.79S VSB 3/4
AURORA         CLOUDY    56  55  97 SW9       29.78F FOG
LANSING*       CLOUDY    54  54 100 NW9       29.81F FOG
JOLIET*        FOG       54  54 100 S6        29.81S VSB 3/4
WAUKEGAN       PTSUNNY   58  53  84 SW18      29.73F
DUPAGE AIRPORT CLOUDY    55  53  93 SW10      29.78F FOG
KANKAKEE*      FOG       53  52  97 CALM      29.82F VSB 1/2
WHEELING       CLOUDY    56  52  86 SW9       29.78F
MORRIS*        CLOUDY    53  53  98 SW6       29.80R FOG
ROMEOVILLE*    FOG       52  52 100 SW8       29.80S VSB 1/4
NORTHERLY ISL    N/A     54  52  93 SW14        N/A
$$

LMZ740>746-221700-
SOUTHERN LAKE MICHIGAN

STATION/POSITION SKY/WX   TEMP    WIND        PRES    VSBY  WAVE
                          AIR SEA DIR/SP/G                  HT/PER
                          (F)     (DEG/KT/KT) (MB)    (MI)  (FT/S)
HARRISON CRIB              54     210/ 17/ 18   N/A
BURNHAM HARBOR             54     210/ 10/ 12   N/A
CALUMET HARBOR             54     200/ 10/ 14 1008.4F
BURNS HARBOR               54     190/ 12/ 14 1009.8S
MICHIGAN CITY              56     180/  7/ 10   N/A
$$

ILZ025>027-034>036-040-047-049-050-058-095>099-221700-
WEST-CENTRAL ILLINOIS

CITY           SKY/WX    TMP DP  RH WIND       PRES   REMARKS
QUINCY         CLOUDY    56  56 100 SW12      29.80S FOG
GALESBURG*     CLOUDY    55  55 100 S14       29.78F FOG
MACOMB*        CLOUDY    56  56 100 SW14      29.82F FOG
JACKSONVILLE*  FOG       54  54 100 SW8       29.83F VSB 3/4
PITTSFIELD*    FOG       56  56 100 S8        29.84S VSB 1
$$

ILZ028>032-037-038-041>044-048-051>054-059>061-221700-
CENTRAL ILLINOIS

CITY           SKY/WX    TMP DP  RH WIND       PRES   REMARKS
PONTIAC        FOG       55  55  97 S7        29.82S VSB 1/2
BLOOMINGTON    FOG       55  54  96 SW10      29.83S VSB 3/4
DECATUR        SUNNY     58  55  90 S13       29.83S
PEORIA         FOG       54  54 100 S7        29.81F VSB 1/8
LACON*         CLOUDY    55  55 100 SW8       29.79F FOG
LINCOLN*       CLOUDY    54  54 100 SW5       29.83F FOG
SPRINGFIELD    FOG       55  54  96 W8        29.84R VSB 1/2
TAYLORVILLE    MOSUNNY   57  56  97 S9        29.83S FOG
$$

ILZ033-039-045-046-055>057-062-063-221700-
EAST-CENTRAL ILLINOIS

CITY           SKY/WX    TMP DP  RH WIND       PRES   REMARKS
CHAMPAIGN      MOSUNNY   58  56  93 S12       29.83F FOG
RANTOUL*       PTSUNNY   58  58  99 S9        29.83F FOG
MATTOON        CLOUDY    56  56 100 S12       29.84F FOG
PARIS*         MOSUNNY   58  56  96 SW9       29.87F
$$

ILZ079-100>102-221700-
SOUTHWEST ILLINOIS

CITY           SKY/WX    TMP DP  RH WIND       PRES   REMARKS
ALTON          FOG       54  54 100 S12       29.85F VSB 1/2
BELLEVILLE     MOSUNNY   61  61 100 CALM      29.84F
CAHOKIA*       CLOUDY    57  55  93 SW5       29.85F FOG
SPARTA*        SUNNY     62  56  82 S10       29.87F
$$

ILZ064>066-069>071-074>076-080>082-084>086-088>090-092>094-221700-
SOUTH-CENTRAL ILLINOIS

CITY           SKY/WX    TMP DP  RH WIND       PRES   REMARKS
CARBONDALE     MOSUNNY   64  58  80 SW6       29.87F
CAIRO*         PTSUNNY   61  58  90 E5        29.89F
EFFINGHAM*     CLOUDY    57  57 100 S6        29.88F FOG
MARION         MOSUNNY   66  61  82 S6        29.89F
MT. VERNON     CLOUDY    62  57  83 S10       29.87F
CENTRALIA*     PTSUNNY   64  58  81 S9        29.86F
SALEM*         PTSUNNY   62  57  83 S9        29.87F
METROPOLIS*    CLOUDY    61  58  91 CALM      29.91F FOG
$$

ILZ067-068-072-073-078-083-087-091-221700-
SOUTHEAST ILLINOIS

CITY           SKY/WX    TMP DP  RH WIND       PRES   REMARKS
LAWRENCEVILLE  MOSUNNY   59  58  96 S8        29.89F FOG
FLORA*         MOSUNNY   62  59  89 SW10      29.88F
FAIRFIELD*     CLOUDY    59  57  92 CALM      29.88F
HARRISBURG*    CLOUDY    58  57  96 CALM      29.89F
ROBINSON*      MOSUNNY   59  58  97 SW6       29.89F
CARMI*         CLOUDY    60  58  92 S3        29.89F
$$

ABBREVIATIONS USED IN REMARKS
   TC - TEMPERATURE IN CELSIUS
  WCI - WIND CHILL INDEX
   HX - HEAT INDEX
  VSB - VISIBILITY
$$




USA.gov is the U.S. government's official web portal to all federal, state and local government web resources and services.